Regional Weather Roundup
Issued by NWS Sterling, VA

Home | Current Version | Previous Version | Graphics & Text | Print | Product List | Glossary On
Versions: 1 2 3 4 5 6 7 8 9 10 11 12 13 14 15 16 17 18 19 20 21 22 23 24 25 26 27
000
ASUS41 KLWX 211611
RWRLWX

REGIONAL WEATHER ROUNDUP
NATIONAL WEATHER SERVICE BALTIMORE MD/WASHINGTON DC
1100 AM EST SUN JAN 21 2018

Note: "FAIR" indicates few or no clouds below 12,000 feet
with no significant weather and/or obstructions to visibility.
 TC=TEMPERATURE CELSIUS

 * =Non NWS site. Station does not report precipitation (e.g. rain,
    snow, etc.), thunder, or fog.

DCZ001-MDZ009-015-VAZ040>042-051-053>054-211700-
WASHINGTON METRO

CITY           SKY/WX    TMP DP  RH WIND       PRES   REMARKS
WASHINGTON NAT CLOUDY    45  34  65 CALM      30.24R
DULLES         PTSUNNY   54  37  52 S7        30.21S
ANDREWS AFB    PTSUNNY   55  37  51 S5        30.21S
FT BELVOIR     CLOUDY    50  33  51 CALM        N/A
COLLEGE PARK*  CLOUDY    47  34  59 CALM      30.22S
LEESBURG*      CLOUDY    50  37  62 CALM      30.22S
MANASSAS*      CLOUDY    49  35  58 CALM      30.22S
GAITHERSBURG*  CLOUDY    51  36  56 S5        30.22S

$$

MDZ006>007-011-014-211700-
BALTIMORE METRO

CITY           SKY/WX    TMP DP  RH WIND       PRES   REMARKS
BWI AIRPORT    PTSUNNY   50  37  61 CALM      30.22S
MD SCIENCE CTR   N/A     48  36  63 MISG      30.23S
MARTIN STATE   CLOUDY    45  37  76 CALM      30.25R
ANNAPOLIS      CLOUDY    47  37  68 CALM      30.22S
FORT MEADE*    CLOUDY    46  34  61 CALM      30.24F

$$

MDZ012-015-019>023-211700-
MARYLAND EASTERN SHORE

CITY           SKY/WX    TMP DP  RH WIND       PRES   REMARKS
OCEAN CITY     CLOUDY    49  37  63 CALM      30.24R
SALISBURY      CLOUDY    51  36  56 CALM      30.23S
BAY BRIDGE AP* CLOUDY    46  36  66 CALM      30.23S
CAMBRIDGE*     CLOUDY    48  37  66 SW5       30.23F
EASTON*        PTSUNNY   46  36  66 CALM      30.27R

$$

MDZ017>025-211700-
SOUTHERN MARYLAND

CITY           SKY/WX    TMP DP  RH WIND       PRES   REMARKS
PATUXENT RIVER NOT AVBL
ST INIGOES     FAIR      50  36  58 S6        30.24R
LEONARDTOWN*   FAIR      55  37  50 CALM      30.25S

$$

MDZ003>005-211700-
NORTH CENTRAL MARYLAND

CITY           SKY/WX    TMP DP  RH WIND       PRES   REMARKS
FREDERICK*     CLOUDY    48  34  57 CALM      30.24R
HAGERSTOWN APT CLOUDY    49  39  68 SE7       30.18F
WESTMINSTER*   CLOUDY    48  39  71 CALM      30.20S

$$

MDZ501>502-211700-
WESTERN MARYLAND

CITY           SKY/WX    TMP DP  RH WIND       PRES   REMARKS
OAKLAND*       CLOUDY    41  41 100 W8        30.15S
CUMBERLAND*    CLOUDY    54  43  66 S6        30.22R

$$

VAZ025>031-211700-
SHENANDOAH VALLEY

CITY           SKY/WX    TMP DP  RH WIND       PRES   REMARKS
WINCHESTER*    CLOUDY    52  39  62 SW6       30.21S
FRONT ROYAL*   CLOUDY    57  43  58 SE6       30.19S
LURAY*         CLOUDY    59  45  58 SW6       30.20S
NEW MARKET*    CLOUDY    54  42  64 CALM      30.20S
STAUNTON*      CLOUDY    54  43  66 S3        30.23S
WAYNESBORO*    PTSUNNY   55  43  63 SW6       30.22R

$$

WVZ021-048>050-054>055-211700-
EASTERN WEST VIRGINIA PANHANDLE

CITY           SKY/WX    TMP DP  RH WIND       PRES   REMARKS
MARTINSBURG    CLOUDY    49  37  63 S3        30.19R
PETERSBURG*    CLOUDY    56  43  61 S6        30.18F

$$

VAZ036>039-050-211700-
CENTRAL FOOTHILLS

CITY           SKY/WX    TMP DP  RH WIND       PRES   REMARKS
CHARLOTTESVILL FAIR      61  42  49 SW5       30.21R
CULPEPER*      FAIR      52  35  52 CALM      30.22F
ORANGE*        FAIR      59  41  51 CALM      30.21S
GORDONSVILLE*  FAIR      57  43  58 S5        30.19F
WARRENTON*     FAIR      56  35  45 CALM      30.21F

$$

VAZ055>057-211700-
NORTH AND CENTRAL PIEDMONT

CITY           SKY/WX    TMP DP  RH WIND       PRES   REMARKS
FREDERICKSBRG* FAIR      53  40  61 E3        30.21F
STAFFORD*      FAIR      54  38  54 CALM      30.26S

$$

NCZ024-NYZ072-PAZ021-071-VAZ022-071-211700-
OTHER REGIONAL OBSERVATIONS

CITY           SKY/WX    TMP DP  RH WIND       PRES   REMARKS
NEW YORK CITY  FAIR      46  28  49 VRB6      30.21S
PHILADELPHIA   CLOUDY    46  33  60 S5        30.23R
PITTSBURGH     CLOUDY    45  43  93 SW6       30.14R
ROANOKE        PTSUNNY   54  37  52 W5        30.26S
RICHMOND       FAIR      57  41  55 CALM      30.24S
RALEIGH        FAIR      55  41  59 CALM      30.27S

$$

ANZ530>537-211700-
MARINE OBSERVATIONS

STATION/POSITION TIME  TEMP    WIND        PRES
                       AIR SEA DIR/SP/G
                 (UTC) (F)     (DEG/KT/KT) (MB)
THOMAS PT LIGHT  1600   40 33  160/  2/  2   N/A
BALT KEY BRIDGE  1548   39     120/  2/  4 1023.7S
COVE POINT       1548   56      CALM  /  2 1024.7R
LEWISETTA        1548   53 35  200/  4/  4 1024.1S
SOLOMONS ISLAND  1542   54 34     CALM     1023.6R
PINEY POINT      1536          170/  2/  2   N/A

$$





USA.gov is the U.S. government's official web portal to all federal, state and local government web resources and services.